Home   Weather   Altstätten   Past weeks

Flag for Switzerland Past Weather in Altstätten, St. Gallen, Switzerland — Yesterday and Last 2 Weeks

Now
52 °F

Clear.


Feels Like: 52 °F
Forecast: 46 / 56 °F
Wind: 1 mph from North

Location: Saint Gallen-Altenrhein

Current Time: Oct 1, 2016 at 7:08:44 AM

Latest Report: Oct 1, 2016 at 6:20 AM


Visibility: 10 mi

Pressure: 29.92 "Hg

Humidity: 94%

Dew Point: 50 °F

Location of AltstättenLocation

Past Weather in Altstätten — Graph

°F

Altstätten Temperature Yesterday

Maximum temperature yesterday: 73 °F (at 4:50 PM)
Minimum temperature yesterday: 50 °F (at 4:50 AM)
Average temperature yesterday: 62 °F

High & Low Weather Summary for the Past Weeks

 TemperatureHumidityPressure
High73 °F (Sep 30, 4:50 PM)100% (Sep 17, 3:20 AM)30.48 "Hg (Sep 17, 3:20 AM)
Low48 °F (Sep 22, 3:50 AM)41% (Sep 30, 4:50 PM)29.92 "Hg (Sep 18, 5:50 AM)
Average58 °F83%30.14 "Hg
* Reported Sep 16 5:20 AM — Oct 1 5:50 AM, Altstätten, Weather by CustomWeather, © 2016

Note: Actual official high and low records may vary slightly from our data, if they occured in-between our weather recording intervals... More about our weather records

Advertising

Altstätten Weather History for the Previous 24 Hours

Scroll right to see more
 ConditionsComfort  
Time TempWeatherWind HumidityBarometerVisibility
5:50 AM
Sat, Oct 1
52 °FClear.1 mph94%29.92 "Hg10 mi
5:20 AM54 °FClear.3 mph88%29.92 "Hg10 mi
4:50 AM52 °FClear.6 mph94%29.92 "HgN/A
4:20 AM52 °FClear.2 mph94%29.92 "Hg10 mi
3:50 AM52 °FClear.2 mph94%29.95 "Hg10 mi
3:20 AM54 °FCool.2 mph94%29.95 "HgN/A
2:50 AM54 °FClear.1 mph88%29.95 "HgN/A
2:20 AM55 °FClear.1 mph82%29.95 "HgN/A
1:50 AM55 °FPassing clouds.5 mph82%29.95 "HgN/A
1:20 AM55 °FClear.1 mph82%29.95 "Hg10 mi
12:50 AM59 °FClear.2 mph72%29.95 "Hg10 mi
12:20 AM57 °FClear.6 mph77%29.98 "Hg10 mi
11:50 PM
Fri, Sep 30
61 °FCool.5 mph68%29.98 "HgN/A
11:20 PM63 °FClear.7 mph68%29.98 "HgN/A
10:50 PM61 °FClear.2 mph68%29.98 "Hg10 mi
10:20 PM57 °FPassing clouds.5 mph72%29.98 "HgN/A
9:50 PM59 °FCool.2 mph82%30.01 "HgN/A
9:20 PM59 °FClear.2 mph77%30.01 "HgN/A
8:50 PM64 °FPassing clouds.6 mph64%30.01 "HgN/A
8:20 PM63 °FClear.5 mph73%30.01 "Hg10 mi
7:50 PM68 °FClear.6 mph49%30.01 "Hg10 mi
7:20 PM66 °FClear.2 mph60%30.01 "Hg10 mi
6:50 PM70 °FSunny.2 mph50%30.01 "Hg10 mi
6:20 PM72 °FSunny.7 mph44%30.01 "Hg10 mi
5:50 PM72 °FSunny.6 mph47%30.01 "Hg10 mi
5:20 PM72 °FPassing clouds.5 mph50%30.01 "HgN/A
4:50 PM73 °FSunny.1 mph41%30.01 "Hg10 mi
4:20 PM72 °FSunny.2 mph47%30.01 "Hg10 mi
3:50 PM72 °FSunny.2 mph47%30.01 "Hg10 mi
3:20 PM72 °FSunny.3 mph47%30.04 "Hg10 mi
2:50 PM72 °FPassing clouds.5 mph44%30.04 "HgN/A
2:20 PM70 °FSunny.6 mph50%30.04 "Hg10 mi
1:50 PM70 °FPassing clouds.5 mph53%30.07 "HgN/A
1:20 PM70 °FPassing clouds.3 mph50%30.07 "HgN/A
12:50 PM70 °FSunny.2 mph50%30.07 "Hg10 mi
12:20 PM68 °FSunny.2 mph60%30.07 "Hg10 mi
11:50 AM66 °FPassing clouds.5 mph64%30.09 "HgN/A
11:20 AM64 °FPassing clouds.3 mph64%30.09 "HgN/A
10:50 AM64 °FPassing clouds.5 mph78%30.09 "HgN/A
10:20 AM66 °FSunny.2 mph68%30.09 "Hg10 mi
9:50 AM64 °FSunny.1 mph73%30.09 "Hg10 mi
9:20 AM61 °FSunny.No wind77%30.09 "Hg10 mi
8:50 AM57 °FSunny.2 mph82%30.09 "Hg10 mi
8:20 AM54 °FSunny.2 mph88%30.09 "Hg10 mi
7:50 AM52 °FSunny.2 mph94%30.07 "Hg10 mi
7:20 AM52 °FSunny.2 mph88%30.07 "Hg10 mi
Weather by CustomWeather, © 2016

See weather overviewHow to use our weather pages